TimePST,TemperatureF,Dew PointF,Humidity,Sea Level PressureIn,VisibilityMPH,Wind Direction,Wind SpeedMPH,Gust SpeedMPH,PrecipitationIn,Events,Conditions,WindDirDegrees,DateUTC
12:54 AM,59.0,54.0,83,29.98,7.0,ENE,4.6,-,N/A,,Overcast,60,2012-11-08 08:54:00
1:54 AM,60.1,54.0,80,29.99,8.0,Calm,Calm,-,N/A,,Overcast,0,2012-11-08 09:54:00
2:05 AM,60.8,53.6,77,29.99,8.0,Calm,Calm,-,N/A,,Overcast,0,2012-11-08 10:05:00
2:54 AM,60.1,54.0,80,30.00,8.0,Calm,Calm,-,N/A,,Overcast,0,2012-11-08 10:54:00
3:54 AM,60.1,54.0,80,30.04,9.0,Calm,Calm,-,N/A,,Overcast,0,2012-11-08 11:54:00
4:28 AM,60.8,53.6,77,30.05,10.0,Calm,Calm,-,N/A,,Overcast,0,2012-11-08 12:28:00
4:54 AM,61.0,54.0,78,30.03,10.0,ENE,5.8,-,0.00,Rain,Light Rain,70,2012-11-08 12:54:00
5:54 AM,61.0,55.0,81,30.00,10.0,NE,5.8,-,0.05,,Mostly Cloudy,50,2012-11-08 13:54:00
6:54 AM,61.0,55.0,81,29.96,10.0,Calm,Calm,-,0.01,,Mostly Cloudy,0,2012-11-08 14:54:00
7:54 AM,64.0,54.0,70,29.94,10.0,NE,9.2,-,N/A,,Mostly Cloudy,40,2012-11-08 15:54:00
7:57 AM,-9999,-9999,N/A,-9999,-9999.0,North,-9999.0,-,N/A,,Unknown,0,2012-11-08 15:57:00
8:54 AM,71.1,54.0,55,29.96,10.0,WNW,8.1,-,N/A,,Mostly Cloudy,300,2012-11-08 16:54:00
9:54 AM,68.0,55.0,63,29.98,10.0,West,8.1,21.9,N/A,,Mostly Cloudy,260,2012-11-08 17:54:00
10:54 AM,66.9,54.0,63,29.97,10.0,SW,5.8,-,N/A,,Mostly Cloudy,230,2012-11-08 18:54:00
11:43 AM,68.0,53.6,60,29.95,10.0,WSW,8.1,-,N/A,,Mostly Cloudy,250,2012-11-08 19:43:00
11:54 AM,68.0,54.0,61,29.95,10.0,WSW,8.1,-,N/A,,Mostly Cloudy,250,2012-11-08 19:54:00
12:54 PM,69.1,55.0,61,29.94,10.0,WSW,8.1,-,N/A,,Mostly Cloudy,240,2012-11-08 20:54:00
1:54 PM,69.1,54.0,58,29.92,10.0,SW,8.1,-,N/A,,Mostly Cloudy,230,2012-11-08 21:54:00
2:54 PM,68.0,54.0,61,29.91,10.0,WSW,6.9,-,N/A,,Mostly Cloudy,250,2012-11-08 22:54:00
3:54 PM,66.9,55.0,66,29.90,10.0,WSW,6.9,-,N/A,,Mostly Cloudy,240,2012-11-08 23:54:00
4:54 PM,64.9,55.0,70,29.90,10.0,Variable,4.6,-,N/A,,Overcast,0,2012-11-09 00:54:00
5:54 PM,64.9,55.0,70,29.90,10.0,SW,3.5,-,N/A,,Overcast,220,2012-11-09 01:54:00
6:54 PM,62.1,55.9,80,29.90,4.0,South,5.8,-,0.02,Rain,Rain,190,2012-11-09 02:54:00
7:30 PM,62.6,57.2,82,29.90,5.0,SSW,3.5,-,0.01,Rain,Light Rain,200,2012-11-09 03:30:00
7:37 PM,62.6,57.2,82,29.90,4.0,Calm,Calm,-,0.01,Rain,Light Rain,0,2012-11-09 03:37:00
7:44 PM,62.6,57.2,82,29.90,3.0,SSW,3.5,-,0.02,Rain,Light Rain,210,2012-11-09 03:44:00
7:49 PM,62.6,57.2,82,29.90,2.5,SW,5.8,-,0.03,Rain,Light Rain,220,2012-11-09 03:49:00
7:54 PM,62.1,57.0,84,29.90,2.5,SW,5.8,-,0.03,Rain,Light Rain,230,2012-11-09 03:54:00
7:59 PM,60.8,57.2,88,29.90,3.0,SW,6.9,-,0.01,Rain,Light Rain,220,2012-11-09 03:59:00
8:09 PM,60.8,55.4,82,29.90,2.5,Variable,4.6,-,0.02,Rain,Light Rain,0,2012-11-09 04:09:00
8:23 PM,60.8,57.2,88,29.91,3.0,SW,3.5,-,0.03,Rain,Light Rain,230,2012-11-09 04:23:00
8:34 PM,60.8,57.2,88,29.91,4.0,SW,3.5,-,0.03,Rain,Light Rain,220,2012-11-09 04:34:00
8:54 PM,61.0,57.0,87,29.91,2.5,SSW,6.9,-,0.04,Rain,Light Rain,200,2012-11-09 04:54:00
9:01 PM,60.8,57.2,88,29.91,2.5,SSW,5.8,-,0.01,Rain,Light Rain,200,2012-11-09 05:01:00
9:14 PM,60.8,57.2,88,29.91,3.0,Variable,3.5,-,0.02,Rain,Light Rain,0,2012-11-09 05:14:00
9:28 PM,60.8,57.2,88,29.91,2.0,SSW,6.9,-,0.05,Rain,Light Rain,200,2012-11-09 05:28:00
9:42 PM,60.8,57.2,88,29.91,5.0,SW,6.9,-,0.06,Rain,Light Rain,230,2012-11-09 05:42:00
9:54 PM,61.0,57.0,87,29.91,4.0,WSW,6.9,-,0.06,Rain,Light Rain,240,2012-11-09 05:54:00
10:54 PM,60.1,55.0,83,29.91,5.0,West,9.2,-,0.03,Rain,Light Rain,260,2012-11-09 06:54:00
11:54 PM,60.1,55.0,83,29.91,10.0,WSW,3.5,-,0.01,,Overcast,240,2012-11-09 07:54:00